Location: Unspecified
(0.0000°N, 0.0000°E)
Time: 12:57:55
(UTC+00:00)

Tiangong 1 - Pass Details

Date: 21 May 2017
Orbit: 323 x 350 km, 42.8° (Epoch: 25 May)

Event Time Altitude Azimuth Distance (km) Brightness Sun altitude
Rises 19:48:49 0° 322° (NW) 2,097 5.7 -26.2°
Reaches altitude 10° 19:50:51 10° 327° (NNW) 1,258 4.3 -26.6°
Enters shadow 19:50:58 11° 328° (NNW) 1,207 4.2 -26.6°
